CPA2X1 LFPG-VHHX

Flight info

Callsign CPA2X1
Flight time 11h 19m
Altitude 31000
Route PILUL DCT OSBIB DCT AMORO DCT GOVNA DCT ATMAD DCT LIMBA/N0502F300 DCT NIMUM/N0501F310 DCT SONIK DCT ODLET DCT ETIDA Q7 IVGOT L744 UDROS UM859 KARDE UN644 FALAZ/N0496F330 UN644 ROLIN N644 LAGAS M747 SULEL N449 DUKAN A480 KRS B701 TUGTA A909 BABUM A477 POGON/K0930F330 T388 BUPOR Y92 OGNOB Z514 USETU Z407 BUTRA L181 AGVUT/K0928S1010 DCT HTN/K0924S1070 DCT OMGEV DCT MUBOP DCT NODIB DCT DUDIT A599 POU
Aircraft B748/H-SDE3FGHIM1M2RWXY/LB1

Departure

Time 2026-04-30 22:55
Airport Charles de Gaulle International Airport (LFPG)

Arrival

Time 2026-05-01 10:14
Airport Hong Kong International Airport Kai Tak (VHHX)
Time Latitude Longitude Altitude Speed Heading
2026-04-30 21:49 48.99989 2.53908 364 ft 0 kts 355°
2026-04-30 22:44 48.99955 2.53905 364 ft 4 kts 17°
2026-04-30 22:45 48.99898 2.53817 364 ft 0 kts 85°
2026-04-30 22:47 48.99898 2.53825 364 ft 2 kts 85°
2026-04-30 22:48 48.99901 2.53881 364 ft 5 kts 85°
2026-04-30 22:49 48.99913 2.54115 369 ft 9 kts 85°
2026-04-30 22:50 48.99884 2.54823 369 ft 6 kts 174°
2026-04-30 22:51 48.99804 2.54832 364 ft 5 kts 168°
2026-04-30 22:51 48.99741 2.54884 368 ft 5 kts 124°
2026-04-30 22:52 48.99725 2.54931 369 ft 5 kts 115°
2026-04-30 22:52 48.99687 2.55054 367 ft 7 kts 115°
2026-04-30 22:53 48.99637 2.55217 365 ft 10 kts 115°
2026-04-30 22:53 48.99581 2.55423 366 ft 12 kts 93°
2026-04-30 22:53 48.99589 2.55626 367 ft 43 kts 86°
2026-04-30 22:54 48.99719 2.58053 365 ft 179 kts 85°
2026-04-30 22:55 49.00121 2.64320 2029 ft 188 kts 87°
2026-04-30 22:55 49.00335 2.68515 2590 ft 212 kts 91°
2026-04-30 22:56 49.00514 2.73027 3469 ft 221 kts 90°
2026-04-30 22:56 49.00419 2.80524 4674 ft 236 kts 101°
2026-04-30 22:57 48.99787 2.85655 5266 ft 254 kts 101°
2026-04-30 22:57 48.99253 2.90865 6306 ft 249 kts 99°
2026-04-30 22:58 48.98738 2.96293 6876 ft 261 kts 99°
2026-04-30 22:59 48.95285 3.01905 7588 ft 269 kts 173°
2026-04-30 22:59 48.89712 3.01530 8360 ft 282 kts 184°
2026-05-01 07:23 31.64491 94.03367 40966 ft 517 kts 122°
2026-05-01 07:24 31.59328 94.14450 40943 ft 516 kts 122°
2026-05-01 07:24 31.55887 94.21828 40925 ft 515 kts 122°
2026-05-01 07:25 31.52446 94.29179 40898 ft 515 kts 122°
2026-05-01 07:25 31.48998 94.36539 40894 ft 514 kts 122°
2026-05-01 07:26 31.45559 94.43864 40899 ft 512 kts 123°
2026-05-01 07:26 31.42100 94.51211 40852 ft 517 kts 123°
2026-05-01 07:27 31.38646 94.58541 40832 ft 519 kts 123°
2026-05-01 07:27 31.35145 94.65951 40835 ft 520 kts 123°
2026-05-01 07:28 31.31643 94.73353 40779 ft 520 kts 123°
2026-05-01 07:28 31.28145 94.80727 40784 ft 518 kts 123°
2026-05-01 07:29 31.24643 94.88098 40765 ft 520 kts 123°
2026-05-01 07:29 31.21130 94.95481 40746 ft 520 kts 123°
2026-05-01 07:30 31.17605 95.02869 40742 ft 521 kts 124°
2026-05-01 07:30 31.14074 95.10258 40728 ft 521 kts 124°
2026-05-01 07:31 31.10547 95.17625 40720 ft 520 kts 124°
2026-05-01 07:32 31.01694 95.36049 40708 ft 522 kts 124°
2026-05-01 07:33 30.96379 95.47073 40709 ft 524 kts 124°
2026-05-01 07:33 30.91000 95.58196 40682 ft 523 kts 124°
2026-05-01 07:34 30.85652 95.69216 40697 ft 522 kts 124°
2026-05-01 07:35 30.81860 95.76369 40738 ft 517 kts 130°
2026-05-01 07:35 30.77823 95.83219 40719 ft 516 kts 130°
2026-05-01 07:36 30.73753 95.90100 40730 ft 518 kts 130°
2026-05-01 07:36 30.69634 95.97055 40757 ft 518 kts 130°
2026-05-01 07:37 30.63524 96.07340 40758 ft 518 kts 130°
2026-05-01 07:37 30.59434 96.14220 40748 ft 518 kts 130°
2026-05-01 07:38 30.55332 96.21100 40763 ft 518 kts 130°
2026-05-01 07:39 30.49187 96.31392 40747 ft 516 kts 130°
2026-05-01 07:39 30.43062 96.41614 40739 ft 514 kts 130°
2026-05-01 07:40 30.38965 96.48450 40743 ft 516 kts 130°
2026-05-01 07:40 30.34886 96.55231 40745 ft 512 kts 130°
2026-05-01 07:41 30.30821 96.61983 40755 ft 517 kts 130°
2026-05-01 07:42 30.24670 96.72180 40707 ft 512 kts 131°
2026-05-01 07:42 30.20617 96.78878 40740 ft 508 kts 130°
2026-05-01 07:43 30.16543 96.85604 40712 ft 514 kts 130°
2026-05-01 07:43 30.10375 96.95768 40699 ft 516 kts 130°
2026-05-01 07:44 30.02135 97.09306 40697 ft 514 kts 131°
2026-05-01 07:45 29.98023 97.16041 40668 ft 514 kts 130°
2026-05-01 07:45 29.93903 97.22788 40686 ft 514 kts 130°
2026-05-01 07:46 29.89780 97.29517 40644 ft 513 kts 130°
2026-05-01 07:47 29.83625 97.39550 40697 ft 513 kts 130°
2026-05-01 07:47 29.79492 97.46271 40699 ft 515 kts 130°
2026-05-01 07:48 29.73235 97.56427 40698 ft 519 kts 130°
2026-05-01 07:48 29.69086 97.63155 40700 ft 512 kts 131°
2026-05-01 07:49 29.62848 97.73228 40704 ft 518 kts 131°
2026-05-01 07:50 29.58666 97.79978 40709 ft 516 kts 130°
2026-05-01 07:50 29.52404 97.90056 40688 ft 515 kts 131°
2026-05-01 07:51 29.48292 97.96668 40671 ft 513 kts 130°
2026-05-01 07:52 29.42024 98.06715 40711 ft 518 kts 130°
2026-05-01 07:52 29.37831 98.13424 40696 ft 516 kts 130°
2026-05-01 07:53 29.31545 98.23462 40711 ft 517 kts 130°
2026-05-01 07:53 29.27365 98.30121 40702 ft 514 kts 130°
2026-05-01 07:55 29.16937 98.46697 40718 ft 515 kts 131°
2026-05-01 07:56 29.06408 98.63366 40768 ft 517 kts 130°
2026-05-01 07:57 29.00071 98.73358 40739 ft 517 kts 131°
2026-05-01 07:58 28.91582 98.86714 40727 ft 520 kts 131°
2026-05-01 07:59 28.83092 99.00028 40750 ft 520 kts 131°
2026-05-01 08:00 28.71020 99.18889 40758 ft 518 kts 131°
2026-05-01 08:01 28.62559 99.32061 40768 ft 513 kts 131°
2026-05-01 08:02 28.56204 99.41921 40819 ft 517 kts 131°
2026-05-01 08:03 28.49841 99.51777 40786 ft 519 kts 132°
2026-05-01 08:03 28.43414 99.61703 40864 ft 520 kts 132°
2026-05-01 08:04 28.34785 99.75004 40866 ft 523 kts 132°
2026-05-01 08:05 28.28304 99.84962 40863 ft 524 kts 133°
2026-05-01 08:06 28.21802 99.94933 40869 ft 526 kts 133°
2026-05-01 08:07 28.13084 100.08259 40829 ft 522 kts 133°
2026-05-01 08:08 28.06582 100.18167 40786 ft 522 kts 133°
2026-05-01 08:09 27.97911 100.31352 40758 ft 524 kts 132°
2026-05-01 08:09 27.93542 100.37979 40759 ft 527 kts 133°
2026-05-01 08:10 27.84787 100.51237 40774 ft 523 kts 133°
2026-05-01 08:11 27.76050 100.64418 40736 ft 525 kts 133°
2026-05-01 08:12 27.69471 100.74324 40747 ft 526 kts 133°
2026-05-01 08:13 27.62902 100.84186 40755 ft 526 kts 133°
2026-05-01 08:13 27.56303 100.94072 40755 ft 526 kts 133°
2026-05-01 08:14 27.51908 101.00643 40745 ft 526 kts 133°
2026-05-01 08:14 27.47501 101.07225 40744 ft 525 kts 133°
2026-05-01 08:15 27.40886 101.17081 40749 ft 526 kts 133°
2026-05-01 08:16 27.36466 101.23655 40740 ft 526 kts 133°
2026-05-01 08:16 27.32057 101.30208 40746 ft 526 kts 133°
2026-05-01 08:17 27.27673 101.36709 40738 ft 520 kts 133°
2026-05-01 08:17 27.23331 101.43140 40729 ft 518 kts 133°
2026-05-01 08:18 27.19344 101.49916 40720 ft 521 kts 125°
2026-05-01 08:19 27.11926 101.63915 40722 ft 524 kts 126°
2026-05-01 08:19 27.08193 101.70939 40704 ft 525 kts 126°
2026-05-01 08:20 27.04459 101.77961 40692 ft 523 kts 125°
2026-05-01 08:20 27.00724 101.84969 40708 ft 524 kts 126°
2026-05-01 08:21 26.96984 101.91978 40688 ft 525 kts 126°
2026-05-01 08:21 26.93258 101.98950 40670 ft 520 kts 126°
2026-05-01 08:22 26.89532 102.05906 40680 ft 519 kts 126°
2026-05-01 08:22 26.85859 102.12760 40699 ft 517 kts 126°
2026-05-01 08:23 26.82153 102.19657 40714 ft 517 kts 126°
2026-05-01 08:23 26.78438 102.26566 40714 ft 517 kts 126°
2026-05-01 08:24 26.74725 102.33456 40713 ft 517 kts 126°
2026-05-01 08:24 26.71007 102.40348 40732 ft 517 kts 126°
2026-05-01 08:25 26.67293 102.47220 40733 ft 517 kts 126°
2026-05-01 08:25 26.63572 102.54096 40749 ft 517 kts 126°
2026-05-01 08:26 26.59838 102.60982 40729 ft 518 kts 126°
2026-05-01 08:26 26.56101 102.67867 40731 ft 518 kts 126°
2026-05-01 08:27 26.52357 102.74751 40744 ft 519 kts 126°
2026-05-01 08:27 26.48642 102.81575 40745 ft 516 kts 126°
2026-05-01 08:28 26.44909 102.88417 40731 ft 516 kts 126°
2026-05-01 08:28 26.41166 102.95274 40737 ft 520 kts 126°
2026-05-01 08:29 26.37400 103.02156 40762 ft 517 kts 126°
2026-05-01 08:29 26.33671 103.08962 40762 ft 515 kts 126°
2026-05-01 08:30 26.29922 103.15794 40755 ft 518 kts 125°
2026-05-01 08:30 26.26146 103.22664 40753 ft 520 kts 125°
2026-05-01 08:31 26.22371 103.29526 40758 ft 518 kts 125°
2026-05-01 08:31 26.18620 103.36327 40773 ft 519 kts 125°
2026-05-01 08:32 26.14840 103.43177 40764 ft 519 kts 125°
2026-05-01 08:32 26.11053 103.50022 40773 ft 519 kts 125°
2026-05-01 08:33 26.07262 103.56873 40767 ft 520 kts 125°
2026-05-01 08:33 26.03464 103.63722 40766 ft 520 kts 125°
2026-05-01 08:34 25.99658 103.70574 40760 ft 521 kts 125°
2026-05-01 08:34 25.95853 103.77415 40775 ft 520 kts 125°
2026-05-01 08:35 25.92041 103.84258 40775 ft 521 kts 125°
2026-05-01 08:35 25.88219 103.91110 40765 ft 522 kts 125°
2026-05-01 08:36 25.84420 103.97910 40765 ft 521 kts 125°
2026-05-01 08:36 25.80597 104.04743 40771 ft 521 kts 125°
2026-05-01 08:37 25.77165 104.11850 40780 ft 524 kts 120°
2026-05-01 08:37 25.73847 104.19034 40786 ft 523 kts 120°
2026-05-01 08:38 25.70535 104.26195 40768 ft 521 kts 120°
2026-05-01 08:38 25.67228 104.33333 40763 ft 521 kts 120°
2026-05-01 08:39 25.63908 104.40485 40757 ft 521 kts 120°
2026-05-01 08:39 25.60593 104.47619 40758 ft 521 kts 120°
2026-05-01 08:40 25.55607 104.58322 40753 ft 521 kts 120°
2026-05-01 08:40 25.52286 104.65441 40745 ft 520 kts 120°
2026-05-01 08:41 25.48961 104.72554 40738 ft 519 kts 120°
2026-05-01 08:41 25.45657 104.79612 40734 ft 520 kts 120°
2026-05-01 08:42 25.42336 104.86695 40741 ft 518 kts 120°
2026-05-01 08:42 25.39005 104.93786 40733 ft 519 kts 120°
2026-05-01 08:43 25.35672 105.00873 40744 ft 519 kts 120°
2026-05-01 08:43 25.32341 105.07943 40746 ft 519 kts 120°
2026-05-01 08:44 25.28997 105.15032 40748 ft 519 kts 120°
2026-05-01 08:44 25.25658 105.22096 40759 ft 519 kts 120°
2026-05-01 08:45 25.22312 105.29166 40753 ft 519 kts 121°
2026-05-01 08:45 25.18954 105.36249 40758 ft 520 kts 121°
2026-05-01 08:46 25.15594 105.43327 40760 ft 520 kts 121°
2026-05-01 08:46 25.12253 105.50353 40751 ft 520 kts 122°
2026-05-01 08:47 25.08890 105.57414 40769 ft 520 kts 122°
2026-05-01 08:47 25.05519 105.64482 40786 ft 520 kts 122°
2026-05-01 08:48 25.02147 105.71538 40784 ft 520 kts 123°
2026-05-01 08:48 24.98774 105.78592 40793 ft 519 kts 123°
2026-05-01 08:49 24.95409 105.85611 40784 ft 519 kts 123°
2026-05-01 08:49 24.92029 105.92655 40789 ft 520 kts 123°
2026-05-01 08:50 24.88648 105.99691 40802 ft 519 kts 123°
2026-05-01 08:50 24.85263 106.06720 40796 ft 521 kts 123°
2026-05-01 08:51 24.81859 106.13783 40808 ft 523 kts 123°
2026-05-01 08:51 24.78446 106.20851 40814 ft 522 kts 123°
2026-05-01 08:52 24.75609 106.26718 40815 ft 523 kts 123°
2026-05-01 08:52 24.72199 106.33762 40811 ft 520 kts 123°
2026-05-01 08:53 24.68808 106.40755 40825 ft 518 kts 123°
2026-05-01 08:53 24.65411 106.47750 40829 ft 518 kts 123°
2026-05-01 08:54 24.62037 106.54684 40834 ft 518 kts 123°
2026-05-01 08:54 24.58638 106.61663 40837 ft 518 kts 123°
2026-05-01 08:55 24.55232 106.68645 40830 ft 518 kts 123°
2026-05-01 08:55 24.51819 106.75630 40836 ft 519 kts 123°
2026-05-01 08:56 24.48402 106.82613 40836 ft 518 kts 123°
2026-05-01 08:56 24.44984 106.89591 40839 ft 519 kts 123°
2026-05-01 08:57 24.41559 106.96569 40838 ft 519 kts 123°
2026-05-01 08:57 24.38133 107.03540 40834 ft 519 kts 123°
2026-05-01 08:58 24.34706 107.10504 40839 ft 519 kts 123°
2026-05-01 08:58 24.31277 107.17459 40843 ft 519 kts 123°
2026-05-01 08:59 24.27846 107.24412 40846 ft 519 kts 123°
2026-05-01 08:59 24.24408 107.31364 40851 ft 518 kts 123°
2026-05-01 09:00 24.20991 107.38268 40846 ft 519 kts 123°
2026-05-01 09:00 24.17544 107.45220 40839 ft 520 kts 123°
2026-05-01 09:01 24.14089 107.52180 40845 ft 520 kts 123°
2026-05-01 09:01 24.10626 107.59142 40850 ft 520 kts 123°
2026-05-01 09:02 24.07165 107.66093 40852 ft 521 kts 123°
2026-05-01 09:02 24.03696 107.73051 40857 ft 521 kts 123°
2026-05-01 09:03 24.00221 107.80007 40858 ft 521 kts 123°
2026-05-01 09:03 23.96747 107.86954 40866 ft 521 kts 123°
2026-05-01 09:04 23.93268 107.93904 40873 ft 519 kts 123°
2026-05-01 09:04 23.89810 108.00794 40871 ft 521 kts 123°
2026-05-01 09:05 23.86327 108.07732 40870 ft 520 kts 123°
2026-05-01 09:05 23.82957 108.14725 40880 ft 524 kts 114°
2026-05-01 09:06 23.81911 108.18556 40908 ft 531 kts 102°
2026-05-01 09:06 23.81494 108.22569 40909 ft 534 kts 95°
2026-05-01 09:06 23.81339 108.30696 40900 ft 535 kts 94°
2026-05-01 09:07 23.80797 108.38762 40886 ft 532 kts 97°
2026-05-01 09:07 23.80364 108.46835 40886 ft 532 kts 94°
2026-05-01 09:08 23.79903 108.54910 40886 ft 533 kts 96°
2026-05-01 09:08 23.79421 108.62988 40901 ft 534 kts 95°
2026-05-01 09:09 23.78965 108.71069 40891 ft 533 kts 96°
2026-05-01 09:09 23.78473 108.79150 40894 ft 533 kts 95°
2026-05-01 09:10 23.78006 108.87199 40893 ft 531 kts 95°
2026-05-01 09:10 23.77514 108.95230 40884 ft 530 kts 95°
2026-05-01 09:11 23.77034 109.03267 40897 ft 531 kts 95°
2026-05-01 09:11 23.76539 109.11306 40897 ft 530 kts 95°
2026-05-01 09:12 23.75430 109.19201 40900 ft 526 kts 104°
2026-05-01 09:12 23.73866 109.26930 40905 ft 525 kts 105°
2026-05-01 09:13 23.72302 109.34715 40902 ft 525 kts 104°
2026-05-01 09:13 23.70724 109.42510 40905 ft 526 kts 105°
2026-05-01 09:14 23.69141 109.50318 40901 ft 526 kts 104°
2026-05-01 09:14 23.67558 109.58112 40902 ft 526 kts 104°
2026-05-01 09:15 23.65967 109.65898 40901 ft 526 kts 104°
2026-05-01 09:15 23.64352 109.73701 40908 ft 530 kts 104°
2026-05-01 09:16 23.62724 109.81593 40923 ft 536 kts 104°
2026-05-01 09:17 23.60237 109.93579 40929 ft 543 kts 104°
2026-05-01 09:17 23.57722 110.05659 40926 ft 545 kts 104°
2026-05-01 09:18 23.55195 110.17745 40924 ft 546 kts 104°
2026-05-01 09:19 23.52669 110.29777 40924 ft 545 kts 104°
2026-05-01 09:20 23.50151 110.41864 40913 ft 546 kts 103°
2026-05-01 09:21 23.46876 110.57991 40909 ft 545 kts 103°
2026-05-01 09:21 23.44411 110.70085 40912 ft 546 kts 104°
2026-05-01 09:22 23.41020 110.86201 40915 ft 545 kts 104°
2026-05-01 09:23 23.38475 110.98259 40906 ft 544 kts 104°
2026-05-01 09:24 23.35930 111.10242 40909 ft 544 kts 104°
2026-05-01 09:25 23.32618 111.26322 40914 ft 544 kts 103°
2026-05-01 09:26 23.30127 111.38372 40915 ft 544 kts 103°
2026-05-01 09:26 23.27650 111.50429 40916 ft 544 kts 103°
2026-05-01 09:27 23.25119 111.62472 40923 ft 545 kts 104°
2026-05-01 09:28 23.23419 111.70497 40926 ft 545 kts 103°
2026-05-01 09:28 23.21715 111.78530 40929 ft 545 kts 104°
2026-05-01 09:29 23.19199 111.90532 40934 ft 545 kts 103°
2026-05-01 09:30 23.16682 112.02600 40937 ft 546 kts 103°
2026-05-01 09:30 23.14164 112.14680 40936 ft 546 kts 103°
2026-05-01 09:31 23.12477 112.22698 40928 ft 544 kts 103°
2026-05-01 09:32 23.09951 112.34708 40939 ft 544 kts 103°
2026-05-01 09:32 23.07409 112.46739 40937 ft 544 kts 102°
2026-05-01 09:33 23.06576 112.54880 40946 ft 543 kts 93°
2026-05-01 09:34 23.05762 112.67152 40953 ft 543 kts 94°
2026-05-01 09:34 23.04933 112.79346 40950 ft 542 kts 93°
2026-05-01 09:35 23.04087 112.91578 40951 ft 542 kts 93°
2026-05-01 09:36 23.03524 112.99727 40950 ft 542 kts 93°
2026-05-01 09:36 23.02951 113.07882 40950 ft 542 kts 93°
2026-05-01 09:37 23.02334 113.16024 40942 ft 541 kts 99°
2026-05-01 09:37 22.99906 113.23716 40970 ft 541 kts 122°
2026-05-01 09:37 22.97752 113.27052 40978 ft 539 kts 134°
2026-05-01 09:38 22.92050 113.32199 40962 ft 533 kts 150°
2026-05-01 09:38 22.88901 113.34309 40948 ft 532 kts 151°
2026-05-01 09:39 22.79870 113.41314 40963 ft 537 kts 137°
2026-05-01 09:39 22.74693 113.47158 40957 ft 538 kts 135°
2026-05-01 09:40 22.66515 113.55369 40975 ft 537 kts 138°
2026-05-01 09:41 22.61148 113.61018 40971 ft 538 kts 138°
2026-05-01 09:41 22.52938 113.69272 40970 ft 535 kts 137°
2026-05-01 09:42 22.47546 113.74809 40964 ft 534 kts 139°
2026-05-01 09:43 22.37499 113.84681 40999 ft 531 kts 148°
2026-05-01 09:43 22.34286 113.86630 40993 ft 529 kts 160°
2026-05-01 09:43 22.30815 113.87873 40997 ft 525 kts 171°
2026-05-01 09:44 22.23626 113.88105 41001 ft 516 kts 194°
2026-05-01 09:44 22.20184 113.87098 40997 ft 510 kts 206°
2026-05-01 09:44 22.17030 113.85397 41000 ft 505 kts 217°
2026-05-01 09:45 22.14277 113.83073 41003 ft 501 kts 229°
2026-05-01 09:45 22.07681 113.74433 40983 ft 497 kts 233°
2026-05-01 09:46 22.03052 113.68965 40978 ft 499 kts 226°
2026-05-01 09:46 21.97620 113.64289 40991 ft 504 kts 213°
2026-05-01 09:47 21.91297 113.60908 40973 ft 510 kts 206°
2026-05-01 09:47 21.85030 113.57649 40940 ft 487 kts 213°
2026-05-01 09:48 21.82124 113.55833 40611 ft 482 kts 213°
2026-05-01 09:48 21.79184 113.54081 39892 ft 486 kts 210°
2026-05-01 09:48 21.76163 113.52441 39416 ft 485 kts 210°
2026-05-01 09:49 21.69346 113.48550 37943 ft 491 kts 211°
2026-05-01 09:49 21.66328 113.46803 37274 ft 494 kts 210°
2026-05-01 09:49 21.63266 113.45086 36605 ft 499 kts 210°
2026-05-01 09:49 21.60183 113.43351 35914 ft 502 kts 210°
2026-05-01 09:50 21.57088 113.41578 35174 ft 504 kts 210°
2026-05-01 09:50 21.53981 113.39795 34411 ft 507 kts 210°
2026-05-01 09:50 21.50897 113.38045 33605 ft 510 kts 209°
2026-05-01 09:50 21.47756 113.36270 32795 ft 511 kts 209°
2026-05-01 09:51 21.44610 113.34483 31948 ft 512 kts 209°
2026-05-01 09:51 21.41450 113.32682 31065 ft 514 kts 209°
2026-05-01 09:51 21.38279 113.30881 30123 ft 518 kts 209°
2026-05-01 09:51 21.35088 113.29075 29085 ft 518 kts 209°
2026-05-01 09:52 21.31729 113.27583 28059 ft 523 kts 197°
2026-05-01 09:52 21.28193 113.26877 27692 ft 513 kts 186°
2026-05-01 09:52 21.24663 113.26929 27370 ft 503 kts 174°
2026-05-01 09:52 21.21278 113.27727 27112 ft 495 kts 162°
2026-05-01 09:53 21.19165 113.28648 26939 ft 496 kts 154°
2026-05-01 09:53 21.16222 113.30606 26687 ft 500 kts 143°
2026-05-01 09:53 21.13701 113.33164 26427 ft 500 kts 131°
2026-05-01 09:53 21.11712 113.36209 26170 ft 500 kts 119°
2026-05-01 09:54 21.10030 113.40777 25830 ft 499 kts 103°
2026-05-01 09:54 21.09626 113.43249 25649 ft 499 kts 95°
2026-05-01 09:54 21.09614 113.46953 25390 ft 497 kts 83°
2026-05-01 09:54 21.10298 113.50563 25135 ft 495 kts 71°
2026-05-01 09:55 21.11624 113.53956 24631 ft 494 kts 59°
2026-05-01 09:55 21.13513 113.57001 24082 ft 488 kts 50°
2026-05-01 09:55 21.15680 113.59767 23585 ft 483 kts 46°
2026-05-01 09:55 21.18039 113.62193 23338 ft 470 kts 34°
2026-05-01 09:56 21.20869 113.64053 23288 ft 475 kts 21°
2026-05-01 09:56 21.23912 113.65199 23220 ft 466 kts
2026-05-01 09:56 21.27155 113.65650 23126 ft 463 kts 359°
2026-05-01 09:57 21.34110 113.65722 22301 ft 461 kts 358°
2026-05-01 09:57 21.37297 113.65894 21742 ft 456 kts
2026-05-01 09:57 21.40443 113.66293 21177 ft 455 kts
2026-05-01 09:58 21.46175 113.68065 20081 ft 455 kts 20°
2026-05-01 09:58 21.48999 113.69514 19497 ft 454 kts 24°
2026-05-01 09:58 21.51800 113.71053 18910 ft 451 kts 23°
2026-05-01 09:58 21.54646 113.72427 18321 ft 447 kts 18°
2026-05-01 09:59 21.57536 113.73614 17702 ft 443 kts 18°
2026-05-01 09:59 21.60385 113.74841 17132 ft 440 kts 20°
2026-05-01 09:59 21.63171 113.76161 16561 ft 436 kts 21°
2026-05-01 09:59 21.65942 113.77466 16062 ft 431 kts 20°
2026-05-01 10:00 21.68678 113.78707 15662 ft 423 kts 20°
2026-05-01 10:00 21.71383 113.79923 15079 ft 421 kts 19°
2026-05-01 10:00 21.74112 113.81130 14313 ft 425 kts 19°
2026-05-01 10:00 21.76825 113.82322 13974 ft 416 kts 19°
2026-05-01 10:01 21.79464 113.83488 13773 ft 404 kts 20°
2026-05-01 10:01 21.82034 113.84625 13406 ft 396 kts 20°
2026-05-01 10:01 21.84583 113.85750 12756 ft 397 kts 19°
2026-05-01 10:01 21.86284 113.86496 12243 ft 400 kts 19°
2026-05-01 10:02 21.89741 113.87999 11414 ft 400 kts 19°
2026-05-01 10:02 21.92299 113.89102 11077 ft 392 kts 19°
2026-05-01 10:02 21.94797 113.90162 10739 ft 378 kts 19°
2026-05-01 10:02 21.97180 113.91210 10408 ft 363 kts 21°
2026-05-01 10:03 21.99457 113.92303 9922 ft 355 kts 22°
2026-05-01 10:03 22.01655 113.93384 9430 ft 347 kts 22°
2026-05-01 10:03 22.03819 113.94416 9162 ft 333 kts 21°
2026-05-01 10:03 22.05917 113.95393 8795 ft 326 kts 21°
2026-05-01 10:04 22.07987 113.96352 8621 ft 320 kts 21°
2026-05-01 10:04 22.10012 113.97310 8364 ft 317 kts 21°
2026-05-01 10:04 22.12008 113.98255 8219 ft 310 kts 21°
2026-05-01 10:04 22.13985 113.99177 7923 ft 309 kts 21°
2026-05-01 10:05 22.15975 114.00095 7533 ft 312 kts 21°
2026-05-01 10:05 22.17967 114.01015 7247 ft 309 kts 22°
2026-05-01 10:05 22.19866 114.01965 6897 ft 293 kts 24°
2026-05-01 10:05 22.21688 114.02946 6564 ft 296 kts 25°
2026-05-01 10:06 22.23528 114.03965 6363 ft 294 kts 26°
2026-05-01 10:06 22.25308 114.04971 6333 ft 284 kts 26°
2026-05-01 10:06 22.27040 114.05956 6061 ft 281 kts 26°
2026-05-01 10:06 22.28768 114.06879 5389 ft 273 kts 24°
2026-05-01 10:07 22.30449 114.07709 4757 ft 258 kts 24°
2026-05-01 10:07 22.32040 114.08570 3817 ft 254 kts 31°
2026-05-01 10:07 22.33492 114.09543 3122 ft 234 kts 36°
2026-05-01 10:07 22.34637 114.10673 2201 ft 218 kts 60°
2026-05-01 10:08 22.35310 114.13430 1308 ft 172 kts 103°
2026-05-01 10:08 22.34807 114.14639 1304 ft 187 kts 121°
2026-05-01 10:08 22.34176 114.15673 1334 ft 152 kts 123°
2026-05-01 10:09 22.33625 114.16592 1013 ft 143 kts 117°
2026-05-01 10:09 22.33308 114.17603 611 ft 146 kts 101°
2026-05-01 10:09 22.33018 114.18606 418 ft 137 kts 118°
2026-05-01 10:09 22.32297 114.19489 216 ft 157 kts 135°
2026-05-01 10:10 22.31622 114.20300 42 ft 131 kts 132°
2026-05-01 10:10 22.31072 114.20901 42 ft 123 kts 134°
2026-05-01 10:10 22.29566 114.22477 1434 ft 155 kts 135°
2026-05-01 10:11 22.28560 114.23080 2235 ft 169 kts 160°
2026-05-01 10:11 22.27381 114.23099 2275 ft 178 kts 189°
2026-05-01 10:11 22.26139 114.22426 2562 ft 225 kts 218°
2026-05-01 10:11 22.25277 114.20927 3101 ft 239 kts 252°
2026-05-01 10:12 22.25256 114.19165 3106 ft 236 kts 283°
2026-05-01 10:12 22.25999 114.17599 2956 ft 236 kts 306°
2026-05-01 10:12 22.28158 114.15087 2112 ft 229 kts 319°
2026-05-01 10:13 22.29446 114.14197 1804 ft 214 kts 345°
2026-05-01 10:13 22.30829 114.14092 1659 ft 187 kts 18°
2026-05-01 10:13 22.31591 114.14438 1443 ft 167 kts 38°
2026-05-01 10:14 22.32393 114.15528 668 ft 161 kts 68°
2026-05-01 10:14 22.32580 114.16111 80 ft 2 kts 63°